CST,Max TemperatureF,Mean TemperatureF,Min TemperatureF,Max Dew PointF,MeanDew PointF,Min DewpointF,Max Humidity, Mean Humidity, Min Humidity, Max Sea Level PressureIn, Mean Sea Level PressureIn, Min Sea Level PressureIn, Max VisibilityMiles, Mean VisibilityMiles, Min VisibilityMiles, Max Wind SpeedMPH, Mean Wind SpeedMPH, Max Gust SpeedMPH,PrecipitationIn, CloudCover, Events, WindDirDegrees
2013-2-1,32,24,15,28,13,9,93,65,43,30.45,30.36,30.18,10,10,3,21,11,,0.00,2,,336
2013-2-2,42,32,21,30,24,12,93,75,55,30.31,30.19,30.07,10,10,0,14,5,,0.00,3,,202
2013-2-3,48,36,24,34,28,21,100,73,43,30.15,30.09,30.02,10,10,2,20,7,,0.00,2,,286
2013-2-4,53,38,24,34,26,19,93,61,28,30.12,30.02,29.95,10,10,10,14,4,,0.00,2,,188
2013-2-5,60,48,33,43,39,30,100,77,45,30.06,29.99,29.94,10,9,2,10,3,,0.00,3,,226
2013-2-6,60,44,28,36,32,27,93,65,34,30.21,30.14,30.07,10,10,3,6,1,,0.00,0,,7
2013-2-7,57,50,42,46,40,32,100,71,50,30.11,30.02,29.94,10,10,5,14,3,,0.00,5,,148
2013-2-8,46,40,33,45,37,28,100,85,70,30.28,30.11,29.90,10,9,2,18,9,,0.00,7,,350
2013-2-9,57,42,28,30,26,19,86,55,25,30.33,30.25,30.16,10,10,10,10,6,,0.00,2,,84
2013-2-10,57,52,46,55,39,27,100,66,38,30.19,30.05,29.92,10,9,2,21,11,30,0.00,4,,158
2013-2-11,57,46,35,55,40,28,100,72,41,30.16,30.09,29.98,10,10,7,15,7,,0.00,2,,265
2013-2-12,51,43,35,37,31,27,87,61,38,30.16,30.03,29.80,10,10,5,14,3,,0.00,3,,61
2013-2-13,44,38,33,43,37,32,100,91,76,30.02,29.84,29.69,10,8,2,18,5,,0.00,8,,305
2013-2-14,57,42,26,37,32,27,100,74,38,30.07,30.03,30.00,10,10,2,14,3,,0.00,1,,213
2013-2-15,51,40,28,37,30,21,100,72,54,30.13,30.09,30.04,10,10,10,15,4,,0.00,3,,337
2013-2-16,35,26,17,21,16,7,86,64,41,30.19,30.12,30.08,10,10,3,17,8,,0.00,1,,330
2013-2-17,44,28,12,18,14,9,86,54,29,30.28,30.21,30.18,10,10,10,10,3,,0.00,1,,226
2013-2-18,59,44,30,39,26,16,87,45,31,30.23,30.10,29.92,10,10,5,23,10,37,0.00,2,,172
2013-2-19,48,37,26,43,27,12,93,61,25,30.22,30.07,29.90,10,10,5,22,12,18,0.00,3,,278
2013-2-20,33,27,21,19,15,10,80,58,41,30.29,30.23,30.18,10,10,10,9,4,,0.00,1,,3
2013-2-21,55,40,26,43,23,12,93,56,18,30.19,30.05,29.88,10,10,3,18,6,,0.00,3,,100
2013-2-22,51,48,44,46,45,43,100,89,82,30.07,30.00,29.90,10,10,7,16,9,,0.00,7,,169
2013-2-23,53,42,30,45,38,27,100,81,54,30.02,29.95,29.88,10,8,1,10,3,,0.00,4,,341
2013-2-24,53,40,26,27,25,21,93,56,30,30.10,30.03,29.98,10,10,10,9,4,,0.00,0,,43
2013-2-25,59,47,35,45,30,21,93,52,31,29.98,29.86,29.56,10,10,7,24,8,33,0.00,3,,107
2013-2-26,48,42,37,45,40,34,93,85,66,29.75,29.56,29.45,10,10,5,24,16,33,0.00,8,,193
2013-2-27,44,40,33,34,31,28,93,75,61,29.91,29.85,29.76,10,10,5,18,10,,0.00,8,,257
2013-2-28,35,34,32,30,26,25,87,73,65,30.04,29.96,29.86,10,10,9,13,7,,0.00,8,,293